Weather History for KTSP - September, 2013

Change the Weather History Date:

Thursday, September 26, 2013

  Actual Average Record
Temperature  
Mean Temperature 48 °F -  
Max Temperature 55 °F 77 °F 82 °F (2012)
Min Temperature 41 °F 49 °F 41 °F (2013)
Degree Days  
Heating Degree Days 17    
Moisture  
Dew Point 33 °F    
Average Humidity 59    
Maximum Humidity 87    
Minimum Humidity 38    
Precipitation  
Precipitation 0.00 in - - ()
Sea Level Pressure  
Sea Level Pressure 29.88 in    
Wind  
Wind Speed 17 mph (WNW)    
Max Wind Speed 23 mph    
Max Gust Speed 33 mph    
Visibility 10 miles    
Events      
Averages and records for this station are not official NWS values.
T = Trace of Precipitation, MM = Missing Value Source: NWS Daily Summary

Daily Weather History Graph

Daily Weather History Graph

Search for Another Location

Airport or City:

Trip Planner

Search our weather history database for the weather conditions in past years. The results will help you decide how hot, cold, wet, or windy it might be!

Date:

Astronomy

Sep. 26, 2013 Rise Set
Actual Time 6:45 AM PDT 6:44 PM PDT
Civil Twilight 6:19 AM PDT 7:09 PM PDT
Nautical Twilight 5:50 AM PDT 7:38 PM PDT
Astronomical Twilight 5:20 AM PDT 8:08 PM PDT
Moon 11:57 PM PDT (9/26) 1:29 PM PDT (9/26)
Length of Visible Light 12h 49m
Length of Day
11h 59m
Waning Gibbous, 53% of the Moon is Illuminated
Sep 26
Waning Gibbous
Sep 26
Last Quarter
Oct 4
New
Oct 11
First Quarter
Oct 18
Full

Hourly Weather History & Observations

Time (PDT) Temp. Windchill Dew Point Humidity Pressure Visibility Wind Dir Wind Speed Gust Speed Precip Events Conditions
12:15 AM 48.2 °F - 32.0 °F 54% 29.79 in 10.0 mi WNW 19.6 mph 27.6 mph N/A   Overcast
12:35 AM 48.2 °F - 32.0 °F 54% 29.79 in 10.0 mi WNW 21.9 mph 31.1 mph N/A   Mostly Cloudy
12:55 AM 48.2 °F - 32.0 °F 54% 29.79 in 10.0 mi WNW 21.9 mph 26.5 mph N/A   Partly Cloudy
1:15 AM 48.2 °F - 33.8 °F 58% 29.79 in 10.0 mi WNW 18.4 mph 26.5 mph N/A   Clear
1:35 AM 48.2 °F - 33.8 °F 58% 29.79 in 10.0 mi NW 18.4 mph 25.3 mph N/A   Mostly Cloudy
1:55 AM 46.4 °F 39.8 °F 35.6 °F 66% 29.80 in 10.0 mi WNW 16.1 mph 21.9 mph N/A   Overcast
2:15 AM 46.4 °F 39.5 °F 35.6 °F 66% 29.79 in 10.0 mi WNW 17.3 mph 24.2 mph N/A   Overcast
2:35 AM 46.4 °F 39.8 °F 35.6 °F 66% 29.80 in 10.0 mi WNW 16.1 mph - N/A   Mostly Cloudy
2:55 AM 44.6 °F 38.8 °F 35.6 °F 71% 29.79 in 10.0 mi WNW 11.5 mph - N/A   Partly Cloudy
3:15 AM 44.6 °F 39.2 °F 35.6 °F 71% 29.80 in 10.0 mi West 10.4 mph - N/A   Clear
3:35 AM 44.6 °F 38.1 °F 35.6 °F 71% 29.80 in 10.0 mi West 13.8 mph - N/A   Partly Cloudy
3:55 AM 42.8 °F 36.2 °F 35.6 °F 76% 29.80 in 10.0 mi West 12.7 mph - N/A   Clear
4:15 AM 42.8 °F 37.0 °F 35.6 °F 76% 29.80 in 10.0 mi West 10.4 mph - N/A   Clear
4:35 AM 41.0 °F 34.7 °F 35.6 °F 81% 29.80 in 10.0 mi WNW 10.4 mph - N/A   Clear
4:55 AM 42.8 °F 36.2 °F 35.6 °F 76% 29.80 in 10.0 mi NW 12.7 mph - N/A   Partly Cloudy
5:15 AM 41.0 °F 34.3 °F 35.6 °F 81% 29.80 in 10.0 mi WNW 11.5 mph - N/A   Clear
5:35 AM 41.0 °F 34.3 °F 35.6 °F 81% 29.80 in 10.0 mi West 11.5 mph - N/A   Clear
5:55 AM 41.0 °F 33.9 °F 37.4 °F 87% 29.81 in 10.0 mi West 12.7 mph - N/A   Clear
6:15 AM 41.0 °F 33.5 °F 37.4 °F 87% 29.81 in 10.0 mi West 13.8 mph - N/A   Scattered Clouds
6:35 AM 41.0 °F 33.5 °F 37.4 °F 87% 29.81 in 10.0 mi West 13.8 mph - N/A   Mostly Cloudy
6:55 AM 41.0 °F 32.5 °F 37.4 °F 87% 29.82 in 9.0 mi West 17.3 mph - N/A   Partly Cloudy
7:15 AM 41.0 °F 32.5 °F 37.4 °F 87% 29.83 in 9.0 mi West 17.3 mph 21.9 mph N/A   Clear
7:35 AM 41.0 °F 32.8 °F 37.4 °F 87% 29.83 in 9.0 mi WNW 16.1 mph 21.9 mph N/A   Partly Cloudy
7:55 AM 42.8 °F 34.5 °F 37.4 °F 81% 29.84 in 9.0 mi WNW 18.4 mph 21.9 mph N/A   Partly Cloudy
8:15 AM 44.6 °F 37.4 °F 37.4 °F 76% 29.85 in 10.0 mi NW 16.1 mph 23.0 mph N/A   Clear
8:35 AM 44.6 °F 38.1 °F 39.2 °F 81% 29.86 in 10.0 mi NW 13.8 mph - N/A   Mostly Cloudy
8:55 AM 44.6 °F 37.2 °F 39.2 °F 81% 29.86 in 9.0 mi NW 17.3 mph 21.9 mph N/A   Scattered Clouds
9:15 AM 46.4 °F 40.1 °F 37.4 °F 71% 29.87 in 10.0 mi NW 15.0 mph 21.9 mph N/A   Clear
9:35 AM 46.4 °F 40.1 °F 37.4 °F 71% 29.88 in 10.0 mi NNW 15.0 mph - N/A   Clear
9:55 AM 48.2 °F - 37.4 °F 66% 29.89 in 10.0 mi NW 18.4 mph - N/A   Partly Cloudy
10:15 AM 48.2 °F - 37.4 °F 66% 29.89 in 10.0 mi NW 16.1 mph 21.9 mph N/A   Clear
10:35 AM 48.2 °F - 35.6 °F 62% 29.89 in 9.0 mi NW 18.4 mph 26.5 mph N/A   Clear
10:55 AM 50.0 °F - 35.6 °F 58% 29.89 in 9.0 mi NW 18.4 mph 26.5 mph N/A   Clear
11:15 AM 50.0 °F - 33.8 °F 54% 29.89 in 8.0 mi WNW 20.7 mph 25.3 mph N/A   Clear
11:35 AM 51.8 °F - 32.0 °F 47% 29.89 in 9.0 mi NW 21.9 mph 26.5 mph N/A   Clear
11:55 AM 51.8 °F - 32.0 °F 47% 29.89 in 8.0 mi NW 17.3 mph 31.1 mph N/A   Clear
12:15 PM 53.6 °F - 32.0 °F 44% 29.89 in 9.0 mi NW 17.3 mph 25.3 mph N/A   Clear
12:35 PM 53.6 °F - 32.0 °F 44% 29.89 in 9.0 mi NW 21.9 mph 26.5 mph N/A   Clear
12:55 PM 53.6 °F - 32.0 °F 44% 29.90 in 9.0 mi NW 21.9 mph 27.6 mph N/A   Clear
1:15 PM 55.4 °F - 32.0 °F 41% 29.90 in 10.0 mi NW 18.4 mph 26.5 mph N/A   Clear
1:35 PM 55.4 °F - 30.2 °F 38% 29.90 in 9.0 mi NW 18.4 mph 23.0 mph N/A   Clear
1:55 PM 55.4 °F - 32.0 °F 41% 29.89 in 10.0 mi NW 17.3 mph 25.3 mph N/A   Clear
2:15 PM 55.4 °F - 32.0 °F 41% 29.90 in 10.0 mi NW 20.7 mph 28.8 mph N/A   Clear
2:35 PM 55.4 °F - 32.0 °F 41% 29.90 in 9.0 mi WNW 23.0 mph 33.4 mph N/A   Clear
2:55 PM 53.6 °F - 32.0 °F 44% 29.90 in 10.0 mi NW 23.0 mph 31.1 mph N/A   Clear
3:15 PM 53.6 °F - 32.0 °F 44% 29.90 in 9.0 mi NW 21.9 mph 29.9 mph N/A   Clear
3:35 PM 53.6 °F - 32.0 °F 44% 29.90 in 10.0 mi NW 19.6 mph 25.3 mph N/A   Clear
3:55 PM 55.4 °F - 32.0 °F 41% 29.90 in 10.0 mi WNW 18.4 mph 27.6 mph N/A   Clear
4:15 PM 55.4 °F - 32.0 °F 41% 29.90 in 10.0 mi WNW 19.6 mph 31.1 mph N/A   Clear
4:35 PM 55.4 °F - 32.0 °F 41% 29.90 in 10.0 mi WNW 20.7 mph 29.9 mph N/A   Clear
4:55 PM 53.6 °F - 30.2 °F 41% 29.90 in 10.0 mi WNW 23.0 mph 29.9 mph N/A   Clear
5:15 PM 53.6 °F - 30.2 °F 41% 29.90 in 10.0 mi WNW 19.6 mph 29.9 mph N/A   Clear
5:35 PM 53.6 °F - 28.4 °F 38% 29.91 in 10.0 mi WNW 21.9 mph 27.6 mph N/A   Clear
5:55 PM 53.6 °F - 28.4 °F 38% 29.91 in 10.0 mi WNW 18.4 mph 27.6 mph N/A   Clear
6:15 PM 51.8 °F - 28.4 °F 41% 29.92 in 10.0 mi WNW 19.6 mph 24.2 mph N/A   Clear
6:35 PM 50.0 °F - 28.4 °F 43% 29.92 in 10.0 mi WNW 19.6 mph 24.2 mph N/A   Clear
6:55 PM - - - N/A% - - North - - N/A   Unknown
7:15 PM 50.0 °F - 30.2 °F 47% 29.94 in 10.0 mi WNW 13.8 mph - N/A   Unknown
7:35 PM 48.2 °F - 30.2 °F 50% 29.94 in 10.0 mi WNW 13.8 mph - N/A   Clear
7:55 PM - - - N/A% - - North - - N/A   Unknown
8:15 PM 46.4 °F 41.9 °F 32.0 °F 57% 29.96 in 10.0 mi West 9.2 mph - N/A   Unknown
8:35 PM 46.4 °F 40.4 °F 32.0 °F 57% 29.97 in - West 13.8 mph - N/A   Unknown
8:55 PM 46.4 °F 42.4 °F 32.0 °F 57% 29.98 in 10.0 mi West 8.1 mph - N/A   Clear
9:15 PM - - - N/A% - - North - - N/A   Unknown
9:35 PM 46.4 °F - 30.2 °F 53% - 10.0 mi North - - N/A   Unknown
9:55 PM 46.4 °F 41.1 °F 30.2 °F 53% 30.00 in 10.0 mi West 11.5 mph - N/A   Unknown
10:15 PM 46.4 °F 41.9 °F 30.2 °F 53% 30.00 in 10.0 mi West 9.2 mph - N/A   Clear
10:35 PM 46.4 °F 41.9 °F 30.2 °F 53% 30.01 in 10.0 mi WNW 9.2 mph - N/A   Clear
10:55 PM 46.4 °F 41.9 °F 30.2 °F 53% 30.01 in 10.0 mi WNW 9.2 mph - N/A   Clear
11:15 PM 46.4 °F 41.1 °F 30.2 °F 53% 30.01 in 10.0 mi WNW 11.5 mph - N/A   Clear
11:35 PM - - - N/A% - 10.0 mi North - - N/A   Clear
11:55 PM 44.6 °F 39.2 °F 30.2 °F 57% 30.01 in 10.0 mi West 10.4 mph - N/A   Unknown